SCP
-0 0 0 0 -0 -0 -0 -0 0 0 0 0 0 0 0 -0 -0 -0 -0 -0 0 0 0 0 0 0 -0 -0 -0 -0 -0 -0 0 0 0 0 0 0 0 0 0 0 0
-0 0 0 0 -0 -0 -0 -0 -0 0 0 0 0 0 0 0 -0 0 0 0 0 0 0 0 0 0 0 0 0 -0 -0 -0 -0 -0 0 0 0 0 0 0 0 0 0
-0 0 0 0 -0 -0 -0 -0 -0 -0 -0 0 0 0 -0 0 0 0 0 0 0 0 0 0 0 0 0 0 0 0 0 -0 -0 -0 -0 -0 -0 0 0 0 0 0 0
-0 -0 0 0 -0 -1 -0 -0 -0 -0 -0 -0 -0 0 0 0 0 0 0 0 0 0 0 0 0 0 0 0 0 0 0 0 0 0 -0 -0 -0 0 0 0 0 0 0
-0 -0 0 0 -0 -1 -0 -0 -0 -0 -0 -0 -0 0 0 0 0 0 0 0 0 0 0 0 0 0 0 0 0 0 0 0 0 0 0 -0 -0 0 0 0 0 0 0
0 -0 0 0 -0 -0 -0 -0 -1 -0 -0 -0 -0 0 0 0 0 0 0 0 0 0 0 0 0 0 0 0 0 0 0 0 0 0 0 -0 0 0 0 0 0 0 0
0 0 0 0 -0 -0 -0 -0 -1 -0 -0 -0 -0 0 0 0 0 0 0 0 0 0 0 0 0 0 0 0 0 0 0 0 0 0 0 0 0 0 0 0 0 0 0
0 0 0 -0 0 -0 0 -0 -0 -0 -0 -0 0 0 0 0 0 0 0 0 0 0 0 0 0 0 0 0 0 0 0 0 0 0 0 0 0 0 0 0 0 0 0
0 0 0 -0 -0 0 0 0 -0 -0 -0 -0 0 0 1 1 0 0 0 0 0 0 0 0 0 0 0 0 0 0 0 0 0 0 0 0 0 0 0 0 0 0 0
0 0 0 0 0 0 0 0 -0 -0 -0 0 0 0 1 1 1 0 0 0 0 0 0 0 0 0 0 0 0 0 0 0 0 0 0 0 0 0 0 0 0 0 0
0 0 0 0 0 0 0 0 0 0 0 0 0 0 1 1 1 0 0 0 0 0 0 0 0 0 0 0 0 0 0 0 0 0 0 0 0 0 0 0 0 0 0
1 0 0 0 0 0 0 0 0 0 0 0 0 0 0 0 0 0 0 0 0 0 0 0 0 1 0 0 0 0 0 0 0 0 0 0 0 0 0 0 0 0 0
0 1 0 0 0 0 0 0 0 0 0 0 0 0 0 0 0 0 0 0 0 0 0 0 1 1 0 0 0 0 0 0 0 0 0 0 0 0 0 0 0 0 0
2 1 0 0 0 0 0 0 0 0 0 0 0 0 0 0 0 0 0 0 0 0 0 0 0 0 0 0 0 0 0 0 0 0 0 0 1 1 0 0 0 0 0
2 2 2 1 0 0 0 0 0 0 0 0 0 0 0 0 0 0 0 0 0 0 0 0 0 0 0 0 0 0 0 0 0 0 0 1 1 0 0 0 0 0 0
1 1 2 1 0 0 0 0 0 0 0 0 0 0 0 0 0 0 0 0 0 0 0 0 0 0 0 0 0 0 0 0 0 0 0 1 0 0 0 0 0 0 0
1 1 1 1 1 1 0 0 0 0 0 0 0 0 0 0 0 0 0 0 0 0 0 0 0 0 0 0 0 0 0 0 0 0 0 0 1 0 0 1 1 0 0
0 0 0 0 0 2 2 1 0 0 0 1 0 0 0 0 0 0 0 0 0 0 0 0 0 0 0 0 0 0 0 0 0 0 0 0 1 1 1 0 1 0 0
0 0 0 0 0 1 2 2 1 2 2 1 1 1 1 0 0 0 0 0 0 0 0 0 0 0 0 0 0 0 0 0 0 0 0 1 0 0 0 0 0 0 0
0 0 0 0 0 1 2 3 3 3 3 3 2 1 1 1 1 0 1 0 0 0 0 0 0 0 0 0 0 0 0 0 0 0 0 0 0 0 0 0 0 0 0
0 0 0 0 0 3 6 5 4 3 2 2 1 1 1 2 2 1 1 0 0 0 0 0 0 0 0 0 0 0 0 0 0 0 0 0 0 0 0 0 0 0 0
0 0 0 0 1 5 6 7 6 4 1 2 1 1 0 1 3 2 1 1 1 1 0 0 0 0 0 0 0 0 0 0 0 0 0 0 0 0 0 0 0 0 0
0 0 0 0 0 4 5 5 0 0 0 0 0 0 0 1 3 2 2 2 1 1 0 0 0 0 0 0 0 0 0 0 0 0 0 0 0 0 0 0 0 0 0
-0 0 0 0 0 1 1 1 1 0 0 0 0 0 1 2 4 3 2 2 2 1 1 1 0 0 0 0 0 0 0 0 0 0 0 0 0 0 0 0 0 0 0
0 0 0 0 0 0 0 0 0 0 0 0 0 0 1 2 3 3 2 1 2 1 1 1 0 0 0 0 0 0 0 0 0 0 0 0 0 0 0 0 0 0 0
0 0 0 0 0 0 0 0 0 0 0 0 0 1 1 2 3 2 2 1 1 1 1 1 0 0 0 0 0 0 0 0 0 0 0 0 0 0 0 0 0 0 0
Wind_Speed_500mb
66 56 54 53 53 51 49 52 54 55 53 51 45 42 38 35 34 30 27 24 22 20 18 16 14 11 9 6 4 3 2 3 4 5 6 6 5 4 3 2 4 4 6
69 61 57 57 56 54 52 53 54 55 55 52 47 43 39 35 31 28 24 21 19 17 16 15 14 14 12 11 9 8 8 5 5 6 5 7 9 7 5 2 6 5 5
69 66 62 59 57 57 55 55 54 53 52 49 46 41 38 34 29 24 21 19 17 15 12 11 11 11 12 11 12 12 12 11 11 12 13 12 9 7 6 3 10 8 6
71 71 67 63 60 59 56 55 54 51 49 47 43 39 34 30 26 22 18 16 14 13 11 10 8 7 8 9 9 10 11 14 19 17 13 10 6 4 5 9 12 11 7
74 74 71 67 62 59 56 52 50 48 46 43 40 37 32 28 25 22 17 14 12 11 10 8 6 5 4 5 8 7 8 13 19 14 7 5 2 7 13 13 13 17 12
76 75 74 70 63 57 53 50 47 46 42 40 38 34 31 28 25 21 18 16 15 13 10 9 7 6 5 3 3 5 7 13 18 16 12 8 1 9 17 11 16 14 19
75 77 74 71 64 56 51 48 45 46 44 41 37 34 31 28 26 23 22 20 18 16 14 14 14 14 12 8 6 3 4 9 16 17 15 11 8 8 16 14 17 14 18
81 78 74 71 64 56 52 46 43 42 42 40 37 35 32 31 29 28 26 25 24 23 22 21 21 21 16 14 14 10 6 5 9 19 24 12 11 17 21 18 17 18 15
79 80 77 72 65 57 51 47 42 40 39 38 37 35 34 34 33 33 33 33 31 30 29 28 28 28 23 23 22 15 12 8 7 11 28 19 8 15 22 14 17 20 19
80 79 78 73 69 62 56 51 47 43 41 41 38 37 36 36 38 39 40 40 39 37 37 35 36 35 30 31 29 22 17 13 10 11 22 26 19 11 14 16 20 26 23
80 77 76 73 69 64 59 54 51 47 44 43 42 42 42 43 45 45 47 46 45 44 44 41 42 42 39 38 36 28 23 15 14 16 13 15 13 12 14 17 21 28 25
85 84 80 76 71 67 62 58 54 51 48 46 45 44 45 46 48 50 51 52 50 49 51 49 48 49 48 46 41 35 30 20 15 18 16 16 16 18 19 16 23 28 24
81 82 77 74 69 66 63 59 55 54 49 47 46 47 50 51 53 55 57 58 57 54 58 57 56 59 55 54 46 41 34 28 18 18 16 19 23 24 22 16 23 26 22
80 79 80 76 72 67 58 53 52 54 52 49 46 49 54 54 57 60 60 58 60 57 60 60 61 61 60 60 52 47 39 36 28 24 23 23 18 24 20 20 25 28 25
76 79 76 75 71 58 51 46 52 52 51 46 47 51 52 53 56 56 54 54 57 53 55 55 57 56 58 58 58 51 45 39 35 33 32 30 23 20 22 26 28 31 29
65 82 71 67 55 51 47 47 44 46 48 49 51 49 50 49 51 49 46 45 47 41 44 46 45 44 44 44 49 45 39 39 36 33 33 35 33 33 30 30 32 26 27
47 50 72 73 64 57 57 64 49 42 45 52 50 50 52 49 53 49 45 46 48 40 41 41 40 38 39 36 37 32 30 30 37 41 42 39 42 41 37 34 33 29 28
49 57 60 76 71 74 83 72 54 49 52 53 51 58 55 56 56 52 51 54 54 46 44 44 42 42 42 38 33 28 31 32 35 40 42 40 47 45 38 37 38 33 28
56 62 69 72 77 81 74 87 77 65 55 55 58 68 62 59 60 60 59 57 61 55 51 46 44 46 45 40 37 34 34 39 41 43 43 48 46 41 44 42 40 35 30
60 58 66 70 73 75 67 63 70 67 58 63 62 72 65 62 65 62 62 63 63 63 57 51 48 46 51 36 39 44 42 40 41 51 49 51 45 47 43 41 40 42 34
62 62 60 76 78 77 74 76 80 74 76 75 68 70 67 67 67 61 64 67 63 63 59 50 47 53 53 47 38 41 47 53 53 50 52 48 43 38 37 34 35 39 35
86 79 59 82 87 91 87 87 92 79 76 69 69 61 59 63 63 64 60 61 58 58 56 49 49 56 59 48 45 42 41 50 54 56 53 46 41 40 38 38 39 44 46
73 84 77 74 92 92 92 89 87 78 69 66 61 64 63 64 62 60 56 55 54 53 53 48 52 52 57 51 51 44 21 26 35 40 38 37 39 42 41 41 47 49 44
70 76 73 66 80 94 93 86 83 74 67 62 62 59 63 66 58 63 62 56 49 48 49 48 50 51 49 53 50 53 52 33 16 9 22 29 33 33 35 30 34 35 40
63 67 81 78 70 76 87 84 70 71 65 59 57 58 59 61 64 60 60 55 45 46 49 42 39 44 47 49 51 52 46 47 50 39 31 27 27 28 25 25 26 31 36
59 59 58 67 64 74 79 75 75 72 66 65 64 60 54 54 59 59 57 51 43 44 44 39 41 37 38 39 44 45 42 48 39 34 32 31 26 28 26 25 27 30 32
Wind_Direction_500mb
163 164 159 154 151 144 140 137 136 139 141 142 144 143 139 136 132 130 125 119 113 108 103 98 96 99 104 114 133 153 170 229 241 250 236 204 172 111 33 21 151 128 117
159 165 163 159 156 151 148 143 143 144 145 146 147 144 141 139 137 132 128 121 115 109 106 104 104 100 96 92 90 90 94 110 144 159 152 162 153 144 138 269 249 242 200
161 167 167 163 161 158 154 151 151 152 152 152 152 151 150 149 147 145 144 139 134 125 118 110 104 103 104 104 100 98 100 110 123 127 118 123 140 122 91 268 279 262 226
164 168 171 166 165 162 159 159 158 159 160 159 161 160 160 161 158 159 160 158 156 151 146 136 126 121 114 105 100 96 101 113 133 129 133 128 113 90 359 325 280 267 257
167 169 172 168 168 164 163 164 166 167 167 168 169 169 169 171 170 172 174 175 178 176 172 167 167 167 152 133 116 116 116 137 152 148 170 153 34 22 340 322 299 261 251
169 172 173 170 171 166 166 170 175 178 178 180 181 181 182 184 188 189 194 199 200 201 202 205 220 234 236 224 128 130 150 168 173 172 197 220 145 355 346 341 337 277 245
170 175 173 173 173 169 169 173 180 188 190 192 194 196 198 203 206 208 213 217 220 222 225 226 235 241 245 261 280 253 196 187 197 197 208 234 211 249 317 324 339 322 254
175 176 174 175 175 174 173 178 183 192 197 200 204 209 211 218 220 223 226 232 231 232 235 238 245 249 250 260 265 267 255 234 216 230 227 233 209 228 277 304 320 331 292
178 177 179 177 177 179 180 182 188 196 202 207 212 216 221 227 231 233 234 237 238 240 242 243 247 252 255 261 264 264 265 260 243 231 226 236 237 232 257 278 315 319 304
181 183 181 181 181 183 184 188 194 201 208 214 218 224 229 234 238 242 243 242 243 244 245 246 249 253 253 256 262 260 260 264 258 239 235 236 245 246 252 286 312 313 301
186 188 189 189 189 190 191 193 200 206 215 220 225 229 234 239 243 244 246 247 247 249 250 249 251 253 254 254 258 258 256 254 270 240 238 223 241 256 266 291 315 319 298
194 195 198 199 197 195 195 200 206 212 218 226 232 236 242 247 249 251 253 251 250 251 253 252 252 254 254 255 256 259 260 251 261 208 224 246 261 258 250 285 313 324 301
199 200 200 203 203 202 203 205 212 220 222 231 237 244 249 251 251 254 255 255 253 253 255 255 254 254 257 259 258 259 259 250 224 215 241 255 262 252 249 284 309 324 303
200 197 199 201 205 205 211 213 219 225 230 234 240 245 251 255 256 256 258 261 261 260 261 261 260 259 261 262 262 260 259 255 227 219 244 258 264 242 257 287 304 317 317
211 205 205 204 205 205 211 216 224 227 231 235 239 245 251 255 260 260 263 265 264 263 263 264 262 260 261 264 264 261 262 257 232 231 243 261 279 262 273 292 301 303 308
211 213 212 210 198 200 208 223 232 236 236 238 240 246 249 252 261 261 262 264 266 269 270 267 260 258 261 268 269 260 261 254 230 234 244 255 281 280 278 282 279 286 296
210 204 218 209 196 198 226 247 240 241 245 243 244 246 247 251 263 269 271 272 274 276 274 270 259 254 254 266 265 253 246 250 238 249 255 258 269 267 265 266 269 280 289
216 203 209 202 207 225 219 237 241 247 251 253 253 249 247 257 266 272 276 279 277 269 270 269 264 258 256 257 257 254 242 245 249 260 261 261 263 255 259 266 270 277 283
234 229 213 216 223 218 235 244 243 241 249 261 262 254 252 259 266 271 276 278 279 268 263 268 263 255 253 254 258 253 242 244 248 263 266 269 258 266 269 270 265 258 264
261 239 235 224 206 209 216 218 225 233 243 251 255 254 257 261 263 266 271 270 270 263 257 258 256 253 251 257 265 258 251 254 250 264 267 266 272 272 266 257 252 253 248
269 254 246 221 212 217 217 217 223 229 230 236 243 245 250 253 255 268 272 266 263 258 255 259 255 246 252 251 250 241 245 249 255 266 266 269 274 267 260 259 258 244 247
256 258 250 229 226 219 218 222 225 231 239 244 249 242 249 256 264 272 268 267 262 255 250 245 242 241 245 248 230 232 241 254 260 267 267 272 260 262 259 264 261 253 255
254 254 256 241 232 229 225 225 222 226 233 239 247 257 259 262 267 262 262 262 259 256 249 247 243 234 237 240 243 238 240 248 264 270 267 263 259 261 264 265 261 256 247
264 256 252 253 247 234 228 225 223 224 233 246 258 267 266 262 258 257 257 257 255 250 243 251 239 235 236 240 240 238 242 246 236 278 268 274 264 262 265 269 254 245 238
277 260 256 255 246 237 229 229 235 245 254 259 260 260 261 255 250 256 248 248 244 240 245 236 232 233 237 243 244 240 237 243 249 258 277 279 270 260 266 265 258 246 240
289 269 256 235 231 223 223 232 242 250 257 260 254 251 258 252 242 245 240 240 240 242 243 222 229 231 235 246 248 244 246 245 245 245 256 272 281 280 267 262 257 239 229
Wind_Speed_850mb
66 56 54 53 53 51 49 52 54 55 53 51 45 42 38 35 34 30 27 24 22 20 18 16 14 11 9 6 4 3 2 3 4 5 6 6 5 4 3 2 4 4 6
69 61 57 57 56 54 52 53 54 55 55 52 47 43 39 35 31 28 24 21 19 17 16 15 14 14 12 11 9 8 8 5 5 6 5 7 9 7 5 2 6 5 5
69 66 62 59 57 57 55 55 54 53 52 49 46 41 38 34 29 24 21 19 17 15 12 11 11 11 12 11 12 12 12 11 11 12 13 12 9 7 6 3 10 8 6
71 71 67 63 60 59 56 55 54 51 49 47 43 39 34 30 26 22 18 16 14 13 11 10 8 7 8 9 9 10 11 14 19 17 13 10 6 4 5 9 12 11 7
74 74 71 67 62 59 56 52 50 48 46 43 40 37 32 28 25 22 17 14 12 11 10 8 6 5 4 5 8 7 8 13 19 14 7 5 2 7 13 13 13 17 12
76 75 74 70 63 57 53 50 47 46 42 40 38 34 31 28 25 21 18 16 15 13 10 9 7 6 5 3 3 5 7 13 18 16 12 8 1 9 17 11 16 14 19
75 77 74 71 64 56 51 48 45 46 44 41 37 34 31 28 26 23 22 20 18 16 14 14 14 14 12 8 6 3 4 9 16 17 15 11 8 8 16 14 17 14 18
81 78 74 71 64 56 52 46 43 42 42 40 37 35 32 31 29 28 26 25 24 23 22 21 21 21 16 14 14 10 6 5 9 19 24 12 11 17 21 18 17 18 15
79 80 77 72 65 57 51 47 42 40 39 38 37 35 34 34 33 33 33 33 31 30 29 28 28 28 23 23 22 15 12 8 7 11 28 19 8 15 22 14 17 20 19
80 79 78 73 69 62 56 51 47 43 41 41 38 37 36 36 38 39 40 40 39 37 37 35 36 35 30 31 29 22 17 13 10 11 22 26 19 11 14 16 20 26 23
80 77 76 73 69 64 59 54 51 47 44 43 42 42 42 43 45 45 47 46 45 44 44 41 42 42 39 38 36 28 23 15 14 16 13 15 13 12 14 17 21 28 25
85 84 80 76 71 67 62 58 54 51 48 46 45 44 45 46 48 50 51 52 50 49 51 49 48 49 48 46 41 35 30 20 15 18 16 16 16 18 19 16 23 28 24
81 82 77 74 69 66 63 59 55 54 49 47 46 47 50 51 53 55 57 58 57 54 58 57 56 59 55 54 46 41 34 28 18 18 16 19 23 24 22 16 23 26 22
80 79 80 76 72 67 58 53 52 54 52 49 46 49 54 54 57 60 60 58 60 57 60 60 61 61 60 60 52 47 39 36 28 24 23 23 18 24 20 20 25 28 25
76 79 76 75 71 58 51 46 52 52 51 46 47 51 52 53 56 56 54 54 57 53 55 55 57 56 58 58 58 51 45 39 35 33 32 30 23 20 22 26 28 31 29
65 82 71 67 55 51 47 47 44 46 48 49 51 49 50 49 51 49 46 45 47 41 44 46 45 44 44 44 49 45 39 39 36 33 33 35 33 33 30 30 32 26 27
47 50 72 73 64 57 57 64 49 42 45 52 50 50 52 49 53 49 45 46 48 40 41 41 40 38 39 36 37 32 30 30 37 41 42 39 42 41 37 34 33 29 28
49 57 60 76 71 74 83 72 54 49 52 53 51 58 55 56 56 52 51 54 54 46 44 44 42 42 42 38 33 28 31 32 35 40 42 40 47 45 38 37 38 33 28
56 62 69 72 77 81 74 87 77 65 55 55 58 68 62 59 60 60 59 57 61 55 51 46 44 46 45 40 37 34 34 39 41 43 43 48 46 41 44 42 40 35 30
60 58 66 70 73 75 67 63 70 67 58 63 62 72 65 62 65 62 62 63 63 63 57 51 48 46 51 36 39 44 42 40 41 51 49 51 45 47 43 41 40 42 34
62 62 60 76 78 77 74 76 80 74 76 75 68 70 67 67 67 61 64 67 63 63 59 50 47 53 53 47 38 41 47 53 53 50 52 48 43 38 37 34 35 39 35
86 79 59 82 87 91 87 87 92 79 76 69 69 61 59 63 63 64 60 61 58 58 56 49 49 56 59 48 45 42 41 50 54 56 53 46 41 40 38 38 39 44 46
73 84 77 74 92 92 92 89 87 78 69 66 61 64 63 64 62 60 56 55 54 53 53 48 52 52 57 51 51 44 21 26 35 40 38 37 39 42 41 41 47 49 44
70 76 73 66 80 94 93 86 83 74 67 62 62 59 63 66 58 63 62 56 49 48 49 48 50 51 49 53 50 53 52 33 16 9 22 29 33 33 35 30 34 35 40
63 67 81 78 70 76 87 84 70 71 65 59 57 58 59 61 64 60 60 55 45 46 49 42 39 44 47 49 51 52 46 47 50 39 31 27 27 28 25 25 26 31 36
59 59 58 67 64 74 79 75 75 72 66 65 64 60 54 54 59 59 57 51 43 44 44 39 41 37 38 39 44 45 42 48 39 34 32 31 26 28 26 25 27 30 32
Wind_Direction_850mb
163 164 159 154 151 144 140 137 136 139 141 142 144 143 139 136 132 130 125 119 113 108 103 98 96 99 104 114 133 153 170 229 241 250 236 204 172 111 33 21 151 128 117
159 165 163 159 156 151 148 143 143 144 145 146 147 144 141 139 137 132 128 121 115 109 106 104 104 100 96 92 90 90 94 110 144 159 152 162 153 144 138 269 249 242 200
161 167 167 163 161 158 154 151 151 152 152 152 152 151 150 149 147 145 144 139 134 125 118 110 104 103 104 104 100 98 100 110 123 127 118 123 140 122 91 268 279 262 226
164 168 171 166 165 162 159 159 158 159 160 159 161 160 160 161 158 159 160 158 156 151 146 136 126 121 114 105 100 96 101 113 133 129 133 128 113 90 359 325 280 267 257
167 169 172 168 168 164 163 164 166 167 167 168 169 169 169 171 170 172 174 175 178 176 172 167 167 167 152 133 116 116 116 137 152 148 170 153 34 22 340 322 299 261 251
169 172 173 170 171 166 166 170 175 178 178 180 181 181 182 184 188 189 194 199 200 201 202 205 220 234 236 224 128 130 150 168 173 172 197 220 145 355 346 341 337 277 245
170 175 173 173 173 169 169 173 180 188 190 192 194 196 198 203 206 208 213 217 220 222 225 226 235 241 245 261 280 253 196 187 197 197 208 234 211 249 317 324 339 322 254
175 176 174 175 175 174 173 178 183 192 197 200 204 209 211 218 220 223 226 232 231 232 235 238 245 249 250 260 265 267 255 234 216 230 227 233 209 228 277 304 320 331 292
178 177 179 177 177 179 180 182 188 196 202 207 212 216 221 227 231 233 234 237 238 240 242 243 247 252 255 261 264 264 265 260 243 231 226 236 237 232 257 278 315 319 304
181 183 181 181 181 183 184 188 194 201 208 214 218 224 229 234 238 242 243 242 243 244 245 246 249 253 253 256 262 260 260 264 258 239 235 236 245 246 252 286 312 313 301
186 188 189 189 189 190 191 193 200 206 215 220 225 229 234 239 243 244 246 247 247 249 250 249 251 253 254 254 258 258 256 254 270 240 238 223 241 256 266 291 315 319 298
194 195 198 199 197 195 195 200 206 212 218 226 232 236 242 247 249 251 253 251 250 251 253 252 252 254 254 255 256 259 260 251 261 208 224 246 261 258 250 285 313 324 301
199 200 200 203 203 202 203 205 212 220 222 231 237 244 249 251 251 254 255 255 253 253 255 255 254 254 257 259 258 259 259 250 224 215 241 255 262 252 249 284 309 324 303
200 197 199 201 205 205 211 213 219 225 230 234 240 245 251 255 256 256 258 261 261 260 261 261 260 259 261 262 262 260 259 255 227 219 244 258 264 242 257 287 304 317 317
211 205 205 204 205 205 211 216 224 227 231 235 239 245 251 255 260 260 263 265 264 263 263 264 262 260 261 264 264 261 262 257 232 231 243 261 279 262 273 292 301 303 308
211 213 212 210 198 200 208 223 232 236 236 238 240 246 249 252 261 261 262 264 266 269 270 267 260 258 261 268 269 260 261 254 230 234 244 255 281 280 278 282 279 286 296
210 204 218 209 196 198 226 247 240 241 245 243 244 246 247 251 263 269 271 272 274 276 274 270 259 254 254 266 265 253 246 250 238 249 255 258 269 267 265 266 269 280 289
216 203 209 202 207 225 219 237 241 247 251 253 253 249 247 257 266 272 276 279 277 269 270 269 264 258 256 257 257 254 242 245 249 260 261 261 263 255 259 266 270 277 283
234 229 213 216 223 218 235 244 243 241 249 261 262 254 252 259 266 271 276 278 279 268 263 268 263 255 253 254 258 253 242 244 248 263 266 269 258 266 269 270 265 258 264
261 239 235 224 206 209 216 218 225 233 243 251 255 254 257 261 263 266 271 270 270 263 257 258 256 253 251 257 265 258 251 254 250 264 267 266 272 272 266 257 252 253 248
269 254 246 221 212 217 217 217 223 229 230 236 243 245 250 253 255 268 272 266 263 258 255 259 255 246 252 251 250 241 245 249 255 266 266 269 274 267 260 259 258 244 247
256 258 250 229 226 219 218 222 225 231 239 244 249 242 249 256 264 272 268 267 262 255 250 245 242 241 245 248 230 232 241 254 260 267 267 272 260 262 259 264 261 253 255
254 254 256 241 232 229 225 225 222 226 233 239 247 257 259 262 267 262 262 262 259 256 249 247 243 234 237 240 243 238 240 248 264 270 267 263 259 261 264 265 261 256 247
264 256 252 253 247 234 228 225 223 224 233 246 258 267 266 262 258 257 257 257 255 250 243 251 239 235 236 240 240 238 242 246 236 278 268 274 264 262 265 269 254 245 238
277 260 256 255 246 237 229 229 235 245 254 259 260 260 261 255 250 256 248 248 244 240 245 236 232 233 237 243 244 240 237 243 249 258 277 279 270 260 266 265 258 246 240
289 269 256 235 231 223 223 232 242 250 257 260 254 251 258 252 242 245 240 240 240 242 243 222 229 231 235 246 248 244 246 245 245 245 256 272 281 280 267 262 257 239 229